Wind_Speed
5 5 4 5 5 5 5 5 4 4 3 3 4 5 5 5 4 4 5 5 5 5 5 5 5 4 4 4 4 4 4 5 5 5 5 5 5 5 6 5 5 5 6
5 5 5 5 5 5 5 5 5 5 4 4 5 5 6 6 6 5 6 6 5 6 6 6 5 5 5 5 5 4 4 5 5 5 5 6 6 6 7 6 6 6 6
6 6 6 6 6 6 6 6 6 5 5 5 5 5 6 6 6 7 7 6 6 7 7 7 6 6 6 6 6 5 5 5 5 5 6 6 7 8 8 7 7 8 8
6 6 6 6 7 7 7 7 6 6 6 6 6 6 6 6 7 7 8 7 7 7 7 7 7 6 6 7 7 6 6 6 6 7 7 7 8 9 9 9 8 8 9
6 6 7 7 7 7 7 7 6 6 7 7 7 6 6 6 6 7 8 8 8 8 8 8 8 8 7 8 8 7 7 6 6 7 7 8 9 10 10 10 10 10 10
7 7 7 7 7 7 8 7 7 8 8 7 8 8 7 7 7 7 7 8 8 9 9 8 8 9 9 8 8 8 8 8 7 8 8 9 10 10 11 11 11 11 11
6 6 6 7 7 7 7 7 8 8 8 8 8 8 8 8 8 7 8 8 8 8 9 9 9 9 10 10 9 9 9 9 9 9 10 10 10 11 11 11 11 11 12
6 6 6 6 7 7 7 7 8 8 7 7 7 7 8 8 8 8 8 8 8 8 9 10 10 10 11 12 11 11 10 11 11 11 11 11 12 12 12 12 12 12 12
6 6 6 6 6 7 6 6 7 7 7 7 7 7 7 7 7 8 8 8 9 9 10 10 11 11 12 12 12 12 12 12 12 12 12 12 12 13 14 13 13 13 13
6 6 7 6 6 6 6 6 6 7 7 7 7 7 7 8 8 8 9 9 9 9 10 11 11 11 11 12 13 13 14 14 13 14 13 13 13 14 14 14 14 14 13
6 6 6 6 6 6 6 6 6 7 7 7 8 8 8 8 9 9 9 10 10 11 11 12 12 12 12 12 13 14 14 14 14 14 15 14 14 14 14 14 14 14 14
6 6 6 6 6 6 6 7 7 8 8 8 8 9 9 9 9 9 10 10 11 11 12 12 12 12 12 13 13 13 14 14 15 15 15 15 14 14 14 14 14 14 14
6 7 7 7 7 7 7 7 8 8 9 9 10 10 10 10 10 10 10 10 11 12 12 13 13 13 13 13 13 14 14 14 14 14 14 14 15 14 14 14 14 14 14
6 6 7 7 7 7 8 8 8 8 9 10 10 10 10 10 11 11 11 12 12 12 12 13 13 13 14 14 14 14 14 14 13 13 13 13 14 14 14 14 14 14 14
6 6 7 8 8 8 8 8 9 9 10 10 11 11 11 11 11 11 11 12 12 12 12 12 12 13 13 13 13 13 13 13 13 13 13 13 13 13 13 14 14 14 13
7 7 8 8 8 9 9 9 9 10 11 11 11 11 11 11 12 12 12 12 12 12 12 13 13 13 13 12 12 12 12 12 13 13 13 13 13 13 13 14 14 14 14
8 8 8 9 9 9 9 10 10 11 11 12 12 12 12 12 12 12 12 12 12 13 13 13 14 13 12 12 12 12 12 12 12 13 13 13 13 13 14 14 15 15 15
9 9 9 9 9 10 10 10 10 11 11 11 12 12 12 12 12 13 13 13 13 13 13 14 14 13 13 13 12 12 13 13 13 13 13 13 14 14 14 15 15 15 15
10 10 10 10 10 10 10 10 10 10 11 11 12 12 13 13 13 13 14 14 14 14 14 14 14 14 14 14 13 13 13 13 13 14 14 14 15 15 15 15 16 15 16
11 11 11 11 11 11 11 10 11 11 11 11 12 12 13 13 13 13 14 14 14 14 14 14 14 14 14 14 14 14 14 14 14 15 15 15 15 16 16 17 17 17 17
12 12 12 11 11 11 10 10 11 11 11 11 12 12 13 14 14 14 13 14 14 14 14 14 15 15 15 15 15 15 15 15 15 15 15 16 16 16 16 17 17 17 17
12 12 12 12 12 11 11 11 11 11 12 12 13 13 13 13 13 13 13 13 14 14 15 15 15 15 15 15 15 15 16 16 16 16 16 16 16 16 17 17 18 18 18
13 12 12 11 12 12 12 12 12 12 13 13 13 13 13 13 13 13 13 14 14 14 15 15 15 15 15 15 15 15 16 16 17 17 17 17 17 17 17 18 19 19 19
13 13 13 13 13 12 12 12 13 13 14 14 13 13 13 14 14 14 14 14 15 15 15 16 16 16 16 16 16 17 17 17 18 18 18 18 18 18 18 19 19 19 19
14 14 14 14 13 13 13 12 13 13 14 14 14 14 14 14 15 15 15 15 16 16 16 16 16 16 16 16 17 17 17 17 18 18 19 19 19 19 19 20 20 20 21
14 15 15 15 14 14 14 14 14 14 15 15 15 15 15 15 16 16 16 16 16 17 17 17 17 17 17 17 17 17 18 18 18 19 19 19 19 20 20 21 21 22 22
Wind_Direction
225 228 232 233 236 228 220 220 230 240 242 234 227 226 225 230 234 234 231 232 227 226 225 219 225 227 226 223 215 218 213 219 218 220 221 220 221 220 223 228 234 233 231
230 232 234 238 236 233 228 230 237 242 247 241 235 235 235 239 242 243 241 237 227 230 231 230 231 233 233 226 217 219 222 230 227 230 233 232 229 229 230 231 233 234 237
234 236 237 235 234 236 236 239 239 239 246 245 245 246 243 245 250 250 249 239 237 238 235 233 233 234 232 233 229 229 235 239 237 245 246 243 239 240 239 238 238 240 240
236 241 242 241 241 242 240 241 242 242 248 248 248 250 253 249 253 253 252 244 241 243 242 237 235 235 235 234 233 235 239 242 245 249 249 248 246 244 245 244 243 244 244
239 247 244 240 241 241 243 242 241 243 247 249 246 251 254 255 257 258 254 244 242 242 240 236 236 238 241 241 237 237 243 246 249 252 255 253 250 248 248 248 247 248 251
240 247 248 244 242 242 240 243 245 248 249 252 250 249 250 252 256 253 251 247 242 241 237 235 238 240 241 241 238 243 250 252 256 257 260 261 255 250 248 247 247 249 250
242 244 247 247 246 244 242 245 251 255 255 256 256 252 252 255 255 252 251 249 245 246 244 242 244 245 245 246 247 253 256 257 260 262 265 266 256 249 247 246 247 251 253
243 240 245 249 249 247 245 247 253 257 258 256 255 254 254 253 251 251 255 252 250 252 253 252 250 248 249 251 252 260 262 260 263 265 265 262 252 248 249 248 249 251 253
242 243 246 249 248 245 242 245 251 254 256 259 259 257 259 259 251 250 252 252 253 254 256 255 255 254 254 254 256 257 258 259 259 262 262 257 251 250 250 251 252 252 253
241 244 245 244 246 245 245 246 251 254 256 260 262 260 259 256 253 254 255 256 256 256 257 257 260 259 256 258 258 258 258 258 259 259 257 256 253 251 250 253 254 255 255
245 242 243 247 251 249 249 251 252 254 257 263 263 264 265 261 261 262 263 262 260 260 260 260 261 260 262 262 260 259 260 260 260 257 255 254 254 253 253 253 254 255 255
247 245 242 247 249 248 248 252 256 256 258 264 265 264 267 270 268 266 265 262 262 263 264 265 266 270 268 266 262 260 260 262 262 259 257 256 256 255 254 253 254 255 256
247 244 245 246 248 250 251 255 259 258 260 263 268 273 273 272 270 267 262 261 263 264 267 270 271 272 271 267 267 266 264 262 261 259 259 257 255 255 255 254 254 255 256
250 250 253 253 254 255 257 261 260 259 261 265 269 272 273 273 273 270 272 273 271 270 270 271 272 274 274 271 268 267 266 263 260 258 257 256 256 256 256 255 254 255 256
249 256 259 256 258 261 262 263 264 266 267 267 267 267 269 271 274 275 276 276 273 271 270 272 272 272 274 274 271 268 266 264 260 257 257 258 259 256 255 253 251 253 255
249 257 260 259 262 265 265 264 264 268 271 272 269 267 267 268 270 272 276 277 276 274 272 272 272 272 272 272 271 269 266 262 260 259 258 258 257 255 254 253 250 253 256
252 257 262 264 265 267 269 269 267 268 270 270 269 268 267 268 270 273 274 275 277 275 274 272 271 272 271 270 268 266 265 262 261 260 258 257 256 255 254 253 252 251 254
255 260 263 267 268 272 274 273 271 271 270 269 269 267 267 269 271 272 273 274 277 276 276 274 273 272 270 269 266 265 264 262 261 260 258 257 257 256 253 253 255 254 253
258 262 267 272 272 273 274 274 272 273 273 270 270 270 269 270 271 272 272 273 275 275 275 275 275 273 271 269 267 265 263 264 263 262 261 260 259 257 256 255 255 256 256
262 266 271 275 276 276 274 273 272 271 272 272 275 275 272 270 272 272 272 274 275 274 274 275 277 274 270 269 267 265 265 265 264 263 262 262 262 260 258 257 257 257 257
266 269 272 273 275 275 273 274 273 272 274 276 278 279 277 273 273 273 274 274 274 275 274 273 275 277 272 270 268 266 265 265 265 263 263 263 262 261 259 258 257 256 255
267 269 269 272 272 273 273 274 274 272 274 278 278 279 278 277 278 276 274 275 275 276 276 277 276 277 275 273 272 267 264 264 264 264 264 264 263 261 259 259 258 256 255
264 265 269 272 271 274 275 276 277 274 274 277 278 280 277 277 279 278 276 277 278 278 278 278 277 277 274 273 273 270 266 264 262 263 264 265 265 263 261 261 259 258 257
262 264 268 272 272 275 280 276 276 277 274 274 275 276 277 275 277 277 278 279 279 278 279 281 279 277 274 273 273 271 268 266 265 264 264 264 264 264 263 262 261 259 257
262 265 269 273 274 276 279 278 277 276 275 275 275 276 277 278 277 276 277 279 279 278 279 281 279 277 275 273 273 273 269 267 267 266 266 265 265 265 264 262 261 261 260
263 266 269 273 275 277 277 278 277 276 277 276 275 276 276 278 278 278 278 279 279 279 280 279 278 276 274 273 272 273 271 269 267 267 266 267 267 266 266 265 264 263 262
Height
5875 5874 5874 5874 5874 5874 5874 5874 5874 5874 5874 5874 5874 5874 5874 5874 5874 5874 5874 5873 5873 5873 5873 5873 5874 5874 5875 5875 5875 5875 5875 5875 5876 5876 5876 5876 5876 5877 5877 5877 5878 5878 5878
5873 5873 5873 5873 5873 5873 5873 5873 5874 5874 5873 5873 5873 5873 5873 5873 5873 5873 5873 5873 5872 5873 5873 5873 5873 5873 5874 5874 5874 5874 5874 5874 5875 5875 5875 5875 5876 5876 5876 5876 5877 5877 5877
5872 5872 5872 5872 5872 5873 5873 5873 5873 5873 5873 5873 5873 5873 5872 5872 5872 5872 5872 5872 5872 5871 5872 5872 5872 5872 5873 5873 5873 5873 5874 5874 5874 5874 5874 5874 5874 5875 5875 5875 5876 5876 5876
5871 5871 5871 5871 5871 5871 5872 5872 5872 5872 5872 5872 5872 5872 5871 5871 5871 5871 5871 5870 5870 5871 5871 5871 5871 5871 5871 5872 5872 5872 5873 5873 5873 5873 5873 5873 5873 5873 5874 5874 5874 5875 5875
5870 5869 5869 5870 5870 5870 5870 5871 5871 5871 5871 5871 5871 5870 5870 5870 5870 5870 5870 5869 5869 5869 5870 5870 5870 5870 5870 5870 5871 5871 5871 5871 5871 5871 5871 5871 5871 5871 5872 5872 5873 5873 5874
5868 5868 5868 5868 5869 5869 5869 5869 5870 5869 5869 5869 5869 5869 5869 5869 5869 5869 5869 5868 5868 5868 5868 5868 5868 5868 5869 5869 5869 5870 5870 5870 5870 5870 5869 5869 5869 5869 5870 5870 5871 5871 5872
5867 5867 5867 5867 5868 5868 5868 5868 5868 5868 5868 5868 5868 5868 5868 5868 5868 5867 5867 5867 5867 5867 5867 5867 5867 5867 5867 5867 5868 5868 5868 5868 5868 5868 5867 5866 5865 5866 5867 5868 5869 5869 5870
5866 5866 5866 5866 5866 5867 5867 5867 5867 5867 5867 5867 5867 5866 5866 5866 5866 5866 5866 5866 5865 5865 5865 5865 5865 5865 5865 5865 5865 5866 5866 5866 5866 5865 5864 5863 5863 5864 5865 5866 5867 5867 5867
5864 5865 5865 5865 5865 5865 5865 5866 5866 5866 5866 5865 5865 5865 5865 5864 5864 5864 5864 5864 5864 5864 5863 5863 5863 5863 5863 5863 5863 5864 5864 5863 5863 5863 5863 5862 5862 5863 5863 5864 5864 5865 5865
5863 5863 5864 5864 5864 5864 5864 5864 5864 5864 5864 5864 5864 5863 5863 5863 5862 5862 5862 5862 5862 5862 5861 5861 5861 5861 5861 5861 5861 5861 5861 5861 5861 5861 5861 5860 5860 5861 5861 5861 5862 5862 5862
5862 5862 5862 5862 5862 5862 5862 5862 5863 5863 5863 5862 5862 5862 5861 5861 5861 5861 5860 5860 5860 5860 5859 5859 5859 5858 5858 5858 5858 5858 5858 5858 5858 5858 5858 5858 5858 5858 5858 5859 5859 5859 5859
5861 5861 5861 5861 5861 5861 5861 5861 5861 5861 5861 5861 5860 5860 5860 5859 5859 5859 5858 5858 5858 5857 5857 5856 5856 5856 5856 5855 5855 5855 5855 5855 5855 5855 5855 5855 5855 5855 5855 5856 5856 5856 5856
5860 5860 5860 5860 5860 5859 5859 5859 5859 5859 5859 5858 5858 5858 5858 5857 5857 5856 5856 5856 5855 5855 5855 5854 5854 5853 5853 5852 5852 5852 5852 5852 5852 5852 5852 5852 5852 5852 5853 5853 5853 5853 5853
5858 5858 5858 5858 5858 5858 5858 5858 5857 5857 5857 5856 5856 5856 5855 5855 5855 5854 5854 5853 5853 5852 5852 5852 5851 5850 5850 5849 5849 5849 5849 5848 5848 5849 5848 5849 5849 5849 5849 5850 5850 5850 5850
5857 5857 5857 5857 5857 5856 5856 5856 5855 5855 5855 5854 5854 5853 5853 5853 5852 5852 5851 5851 5850 5850 5849 5849 5848 5848 5847 5847 5846 5846 5846 5845 5845 5845 5845 5846 5846 5846 5846 5846 5846 5847 5847
5855 5855 5855 5855 5855 5854 5854 5853 5853 5852 5852 5852 5851 5851 5850 5850 5849 5849 5849 5848 5847 5847 5846 5846 5846 5845 5844 5844 5843 5843 5843 5842 5842 5842 5842 5842 5843 5843 5843 5843 5843 5843 5844
5853 5853 5853 5853 5852 5852 5851 5851 5850 5849 5849 5849 5848 5848 5847 5847 5846 5846 5846 5845 5844 5844 5843 5843 5842 5842 5841 5841 5840 5840 5840 5839 5839 5839 5839 5839 5839 5839 5840 5840 5840 5840 5840
5851 5851 5851 5851 5850 5849 5849 5848 5847 5846 5846 5845 5845 5845 5844 5844 5843 5843 5843 5842 5841 5841 5840 5840 5839 5839 5838 5838 5837 5837 5837 5836 5836 5836 5836 5836 5836 5836 5836 5836 5836 5836 5837
5849 5849 5848 5848 5848 5847 5846 5845 5844 5844 5843 5842 5842 5842 5841 5841 5840 5840 5839 5839 5838 5837 5837 5836 5836 5835 5835 5834 5834 5834 5834 5833 5833 5833 5832 5832 5832 5832 5832 5833 5833 5833 5833
5846 5846 5846 5845 5845 5844 5843 5842 5841 5841 5840 5840 5839 5838 5838 5837 5837 5836 5836 5835 5834 5834 5833 5833 5832 5832 5831 5831 5830 5830 5830 5830 5829 5829 5829 5829 5828 5828 5828 5829 5829 5829 5829
5844 5843 5843 5842 5842 5841 5840 5839 5838 5838 5837 5837 5836 5835 5834 5834 5833 5832 5832 5831 5831 5830 5830 5829 5829 5828 5828 5827 5827 5827 5826 5826 5826 5825 5825 5825 5825 5824 5824 5824 5824 5825 5825
5841 5840 5840 5839 5839 5838 5837 5836 5836 5835 5834 5834 5833 5832 5831 5830 5830 5829 5828 5828 5827 5826 5826 5825 5825 5824 5824 5823 5823 5823 5822 5822 5821 5821 5821 5821 5820 5820 5820 5820 5820 5820 5821
5838 5837 5837 5836 5836 5835 5834 5833 5832 5832 5831 5830 5830 5828 5828 5827 5826 5825 5825 5824 5823 5823 5822 5821 5821 5820 5820 5819 5819 5818 5818 5818 5817 5817 5817 5816 5816 5816 5815 5815 5815 5816 5816
5835 5834 5834 5833 5833 5832 5831 5830 5829 5828 5828 5827 5826 5825 5824 5823 5823 5822 5821 5820 5819 5819 5818 5817 5816 5816 5815 5815 5814 5813 5813 5812 5812 5812 5812 5811 5811 5811 5811 5810 5810 5811 5811
5831 5831 5831 5830 5829 5829 5828 5827 5826 5825 5824 5823 5822 5822 5821 5820 5819 5818 5817 5816 5815 5814 5814 5813 5812 5811 5810 5810 5809 5808 5807 5807 5806 5806 5806 5806 5806 5806 5805 5805 5805 5805 5805
5828 5827 5827 5827 5826 5825 5824 5823 5823 5821 5820 5819 5819 5818 5817 5816 5815 5814 5813 5812 5811 5810 5809 5808 5807 5806 5806 5805 5804 5803 5802 5802 5801 5801 5801 5801 5800 5800 5800 5800 5799 5799 5799